Location: ????????
(38.4362°N, 22.8767°E)
Time: 04:32:32
(UTC+00:00)

CZ-2C R/B - Pass Details

Date: 23 April 2024
Orbit: 704 x 904 km, 98.2° (Epoch: 23 May)

Event Time Altitude Azimuth Distance (km) Brightness Sun altitude
Rises 01:03:26 0° 9° (N) 3,324 7.1 -27.2°
Reaches altitude 10° 01:05:45 10° 7° (N) 2,419 6.2 -26.9°
Maximum altitude 01:11:04 67° 286° (WNW) 921 3.2 -26.1°
Enters shadow 01:11:12 66° 277° (W) 923 3.1 -26.1°
